Regional Weather Roundup
Issued by NWS Little Rock, AR

Home | Current Version | Previous Version | Text Only | Print | Product List | Glossary On
Versions: 1 2 3 4 5 6 7 8 9 10 11 12 13 14 15 16 17 18 19 20 21 22 23 24 25 26 27 28 29 30 31 32 33 34 35 36 37 38 39 40 41 42 43 44 45 46 47 48 49 50
302
ASUS44 KLZK 270505
RWRLZK

WEATHER ROUNDUP FOR ARKANSAS
NATIONAL WEATHER SERVICE LITTLE ROCK AR
1200 AM CDT FRI MAY 27 2016

NOTE: "FAIR" INDICATES FEW OR NO CLOUDS BELOW 12,000 FEET WITH NO
SIGNIFICANT WEATHER AND/OR OBSTRUCTIONS TO VISIBILITY.

ARZ001-003-010-029-270600-
NORTHWEST ARKANSAS

CITY           SKY/WX    TMP DP  RH WIND       PRES   REMARKS
FAYETTEVILLE   PTCLDY    63  63 100 CALM      29.86R
FORT SMITH     CLOUDY    71  64  78 CALM      29.84R
HARRISON       PTCLDY    67  64  90 SE7       29.88S
BENTONVILLE    CLEAR     66  61  82 SE8       29.87R
ROGERS           N/A     65  63  93 SE7       29.87R
SILOAM SPGS    CLEAR     64  55  72 SE8       29.86R
HIGHFILL       CLEAR     65  64  97 S6        29.86R
$$

ARZ004-005-016-270600-
NORTH CENTRAL ARKANSAS

CITY           SKY/WX    TMP DP  RH WIND       PRES   REMARKS
BATESVILLE     CLOUDY    70  66  88 E14       29.91S
FLIPPIN        CLOUDY   N/A N/A N/A E6        29.86R
MTN HOME       CLOUDY    70  68  93 E8        29.89R
$$

ARZ040-041-270600-
WEST CENTRAL ARKANSAS

CITY           SKY/WX    TMP DP  RH WIND       PRES   REMARKS
MENA           CLOUDY    77  70  78 SE7       29.87R
MOUNT IDA      CLOUDY    74  69  85 VRB5      29.85R
$$

ARZ009-017-025-026-028-270600-
NORTHEAST ARKANSAS

CITY           SKY/WX    TMP DP  RH WIND       PRES   REMARKS
CORNING          N/A     68  68 100 SE18G25   29.95F
JONESBORO      LGT RAIN  69  67  93 E12       29.95F
NEWPORT        LGT RAIN  70  70 100 E15       29.90F
WALNUT RIDGE   MOCLDY    70  64  83 SE16G22   29.92F
BLYTHEVILLE    LGT RAIN  69  69 100 E3        29.99R
$$

ARZ022-023-033-042-044-270600-
CENTRAL ARKANSAS

CITY           SKY/WX    TMP DP  RH WIND       PRES   REMARKS
LITTLE ROCK    CLOUDY    72  68  87 SE8       29.89R
N LITTLE ROCK    N/A     69  67  94 SE8G16    29.86R
JACKSONVILLE   LGT RAIN  72  70  94 SE8       29.88S FOG
SEARCY         RAIN      70  70 100 CALM      29.91R
HOT SPRINGS    CLOUDY    71  68  90 E6        29.88R
RUSSELLVILLE   CLOUDY    73  67  81 E5        29.86R
CLINTON        MOCLDY    72  72 100 CALM      29.89R FOG
$$

ARZ036-270600-
EAST ARKANSAS

CITY           SKY/WX    TMP DP  RH WIND       PRES   REMARKS
WEST MEMPHIS   LGT RAIN  69  68  96 E8        29.92F
$$

ARZ050-053-066-070-073-270600-
SOUTHWEST ARKANSAS

CITY           SKY/WX    TMP DP  RH WIND       PRES   REMARKS
ARKADELPHIA    FAIR      71  71 100 CALM      29.87S
CAMDEN         CLOUDY    73  68  83 S7        29.86R
TEXARKANA      MOCLDY    71  69  93 SE5       29.84F
EL DORADO      LGT RAIN  74  71  91 S8        29.87S
DE QUEEN       CLOUDY    72  71  97 CALM      29.83F FOG
$$

ARZ056-057-069-270600-
SOUTHEAST ARKANSAS

CITY           SKY/WX    TMP DP  RH WIND       PRES   REMARKS
PINE BLUFF     CLOUDY    72  69  90 SE3       29.88S
STUTTGART      CLOUDY    73  66  78 E5        29.88S
MONTICELLO     CLOUDY    77  72  84 S5        29.88S

$$






USA.gov is the U.S. government's official web portal to all federal, state and local government web resources and services.